Skip Page Navigation
NASA JPL Caltech
NASA Logo - Jet Propulsion Laboratory + View the NASA Portal
+ Near-Earth Object (NEO) Program
Search JPL
JPL Home Earth Solar System Stars & Galaxies Technology
JPL Solar System Dynamics
BODIES ORBITS EPHEMERIDES TOOLS PHYSICAL DATA DISCOVERY FAQ SITE MAP
JPL Small-Body Database Browser
Search: [ help ]  
6394 (1990 QM2)
Classification: Inner Main-belt Asteroid          SPK-ID: 2006394
Ephemeris | Orbit Diagram | Orbital Elements | Physical Parameters | Discovery Circumstances ]

[ show orbit diagram ]
Orbital Elements at Epoch 2457000.5 (2014-Dec-09.0) TDB
Reference: JPL 6 (heliocentric ecliptic J2000)
 Element Value Uncertainty (1-sigma)   Units 
e .09298146556067824 7.532e-08  
a 1.938541812770292 1.0892e-08 AU
q 1.758293353968256 1.4342e-07 AU
i 22.82048604071881 7.9622e-06 deg
node 161.7050484196837 1.8712e-05 deg
peri 193.4692235749179 5.1481e-05 deg
M 348.8709651632248 5.2492e-05 deg
tp 2457030.976576994111
(2015-Jan-08.47657699)
0.00014384 JED
period 985.8507838995333
2.70
8.309e-06
2.275e-08
d
yr
n .3651668243098817 3.0777e-09 deg/d
Q 2.118790271572327 1.1905e-08 AU
  Orbit Determination Parameters
   # obs. used (total)      761  
   data-arc span      8730 days (23.90 yr)  
   first obs. used      1990-08-22  
   last obs. used      2014-07-17  
   planetary ephem.      DE431  
   SB-pert. ephem.      SB431-BIG16  
   condition code      0  
   fit RMS      .49875  
   data source      ORB  
   producer      Otto Matic  
   solution date      2014-Aug-13 14:08:15  

Additional Information
 Earth MOID = .754427 AU 
 T_jup = 3.804 
[ show covariance matrix ]

Ephemeris | Orbit Diagram | Orbital Elements | Physical Parameters | Discovery Circumstances ]

Physical Parameter Table
Parameter Symbol Value Units Sigma Reference Notes
absolute magnitude H 13.6 mag n/a MPO253408  
rotation period rot_per 3.6873 h n/a Asteroid Lightcurve DataBase (Rev. 2014-Mar-01) Published Reference List:
[Warner, B.D. (2008) Minor Planet Bul. 35, 163-167.]
[Warner, B.D. (2011) Minor Planet Bul. 38, 190-195.]
[Warner, B.D. (2013) Minor Planet Bul. 40, 137-145.]

6394 (1990 QM2)          Discovered 1990-Aug-22 by Holt, H. E. at Palomar (675)
Reference: DISCOVERY.DBLast Updated: 2003-08-29
Ephemeris | Orbit Diagram | Orbital Elements | Physical Parameters | Discovery Circumstances ]
ABOUT SSD CREDITS/AWARDS PRIVACY/COPYRIGHT GLOSSARY LINKS
FirstGov 2014-Aug-22 01:58 UT
(server date/time)  
NASA Home Page
Site Manager:   Donald K. Yeomans
Webmaster  Alan B. Chamberlin